Location: *
(51.0333°S, 178.4667°E)
Time: 15:20:35
(UTC+00:00)

Cosmos 2082 - Pass Details

Date: 15 November 2019
Orbit: 835 x 854 km, 71.0° (Epoch: 05 December)

Event Time Altitude Azimuth Distance (km) Brightness Sun altitude
Rises 09:22:36 0° 332° (NNW) 3,404 6.6 -13.3°
Reaches altitude 10° 09:25:02 10° 332° (NNW) 2,478 5.9 -13.5°
Maximum altitude 09:30:45 89° 243° (WSW) 868 3.7 -14.0°
Drops below altitude 10° 09:36:34 10° 150° (SSE) 2,517 6.5 -14.5°
Sets 09:39:03 0° 149° (SSE) 3,461 7.3 -14.8°
